Tracking 22925 objects as of 6-May-2021
HD Live streaming from Space Station
objects crossing your sky now

THORAD AGENA D DEB

Track THORAD AGENA D DEB now!
10-day predictions


NORAD ID: 42530
Int'l Code: 1970-025SL
Perigee: 811.9 km
Apogee: 1,150.6 km
Inclination: 99.9 °
Period: 104.6 minutes
Semi major axis: 7352 km
RCS: Unknown
Launch date: April 8, 1970
Source: United States (US)
Launch site: AIR FORCE WESTERN TEST RANGE (AFWTR)

Note: This is SATELLITE DEBRIS
aabbcc
Your satellite tracking list
Your tracking list is empty




NASA's NSSDC Master Catalog

Two Line Element Set (TLE):
1 42530U 70025SL  21125.62320751  .00004175  00000-0  35099-2 0  9990
2 42530  99.8935  56.3666 0230378 244.3524 113.3666 13.77117926 54063
Source of the keplerian elements: AFSPC